Regional Weather Roundup
Issued by NWS

Home | Current Version | Previous Version | Text Only | Print | Product List | Glossary On
Versions: 1 2 3 4 5 6 7 8 9 10 11 12 13 14 15 16 17 18 19 20 21 22 23 24 25 26 27 28 29 30 31 32 33 34 35 36 37 38 39 40 41 42 43 44 45 46 47 48 49 50
000
ASUS43 KFSD 311610
RWRSD

WEATHER ROUNDUP FOR SOUTH DAKOTA
NATIONAL WEATHER SERVICE SIOUX FALLS SD
1100 AM CDT FRI JUL 31 2015

NOTE: "FAIR" INDICATES FEW OR NO CLOUDS BELOW 12,000 FEET WITH NO
SIGNIFICANT WEATHER AND/OR OBSTRUCTIONS TO VISIBILITY.


SDZ001>005-009-010-012>017-311700-
NORTHWEST AND NORTH CENTRAL SOUTH DAKOTA

CITY           SKY/WX    TMP DP  RH WIND       PRES   REMARKS
BUFFALO          N/A     81  49  32 VRB3      30.16F
FAITH            N/A     79  50  36 VRB6      30.20F
MOBRIDGE       SUNNY     78  58  49 VRB6      30.15F
$$

SDZ012>016-024>037-041>051-057-063-072>074-311700-
SOUTHWEST AND SOUTH CENTRAL SOUTH DAKOTA

CITY           SKY/WX    TMP DP  RH WIND       PRES   REMARKS
RAPID CTY ARPT SUNNY     76  53  44 NW6       30.24S
PIERRE         SUNNY     79  51  37 E13       30.15F
CUSTER         SUNNY     78  40  25 CALM      30.37F
ELLSWORTH AFB  SUNNY     77  51  39 N8        30.23F
PHILIP         SUNNY     78  60  53 N3        30.18S
PINE RIDGE     SUNNY     80  58  46 CALM      30.23F
SPEARFISH      FAIR      77  48  36 E3        30.29S
WINNER         FAIR      84  59  42 E9        30.16F
$$

SDZ004>011-016>023-039-040-311700-
NORTHEAST SOUTH DAKOTA

CITY           SKY/WX    TMP DP  RH WIND       PRES   REMARKS
ABERDEEN       SUNNY     76  55  48 SW3       30.15F
WATERTOWN      SUNNY     78  51  38 NW3       30.16F
BROOKINGS      SUNNY     75  52  43 NE5       30.18F
SISSETON         N/A     77  54  44 N12       30.12S
$$

SDZ017-020-022-023-036>040-048>070-311700-
SOUTHEAST SOUTH DAKOTA

CITY           SKY/WX    TMP DP  RH WIND       PRES   REMARKS
SIOUX FALLS    SUNNY     78  58  49 NE10      30.16F
HURON          SUNNY     78  56  46 SE6       30.15F
CHAMBERLAIN    SUNNY     78  55  44 E8        30.17S
MITCHELL       SUNNY     79  59  50 E7        30.17S
YANKTON        SUNNY     79  70  73 E5        30.12S
$$

ABBREVIATIONS USED IN REMARKS
   TC - TEMPERATURE IN CELSIUS
  WCI - WIND CHILL INDEX
   HX - HEAT INDEX
  VSB - VISIBILITY



USA.gov is the U.S. government's official web portal to all federal, state and local government web resources and services.